Location: Newark
(34.9500°N, 139.9667°E)
Time: 15:24:50
(UTC+00:00)

Transit 2A - Pass Details

Date: 12 December 2019
Orbit: 601 x 958 km, 66.7° (Epoch: 27 January)

Event Time Altitude Azimuth Distance (km) Brightness Sun altitude
Rises 20:40:52 0° 206° (SSW) 3,165 9.1 -11.6°
Reaches altitude 10° 20:43:20 10° 207° (SSW) 2,189 8.3 -11.2°
Maximum altitude 20:48:16 85° 297° (WNW) 675 5.7 -10.2°
Drops below altitude 10° 20:52:49 10° 25° (NNE) 2,019 8.2 -9.4°
Sets 20:55:01 0° 26° (NNE) 2,899 9.1 -8.9°
